Location: Most
(50.5133°N, 13.6207°E)
Time: 09:45:08
(UTC+01:00)

Oscar 11 - Pass Details

Date: 28 November 2022
Orbit: 611 x 621 km, 97.6° (Epoch: 28 January)

Event Time Altitude Azimuth Distance (km) Brightness Sun altitude
Rises 04:18:56 0° 19° (NNE) 2,893 10.8 -31.2°
Reaches altitude 10° 04:21:16 10° 28° (NNE) 1,982 10.0 -30.8°
Enters shadow 04:25:05 38° 89° (E) 945 8.4 -30.2°
